XTAR-EUR

Last updated on Jan. 20, 2021, 6:22 a.m. UTC

1 28542U 05005A   21019.58830743  .00000156  00000-0  00000-0 0  9994
2 28542   0.0155  68.5937 0002191 236.6315  54.7317  1.00272019 58395
UTC
Height (km)
Latitude
Longitude
Inclination
Orbital Period
UTC large
Height (km)
Speed (km/s)
/
Latitude / Longitude
Inclination (degrees)
Orbital Period (minutes)
Azimuth
Elevation
Range (km)
Doppler Factor
iOS Compass Heading
iOS Angle

Next 30 passes for location: Hong Kong

Rise time Rise Azimuth (degrees) Set time Set Azimuth (degrees) Duration Max altitude (degrees)

No matching passes for this satellites